| time (UTC) | temp F | wind direction | speed MPH | gust MPH | rain 1hr in | rain 24hr in | rain mn in | humidity % | barometer mb |
| 20260903123054 | 74 | 0 | 9.0 | 18.0 | 0.00 | 0.00 | 0.00 | 48 | 1019.5 |
| 20260903121550 | 75 | 268 | 9.0 | 17.0 | 0.00 | 0.00 | 0.00 | 47 | 1019.6 |
| 20260903114552 | 76 | 276 | 4.0 | 16.0 | 0.00 | 0.00 | 0.00 | 48 | 1019.7 |
| 20260903113057 | 76 | 271 | 10.0 | 16.0 | 0.00 | 0.00 | 0.00 | 48 | 1019.9 |
| 20260903111552 | 75 | 286 | 8.0 | 19.0 | 0.00 | 0.00 | 0.00 | 47 | 1020.0 |
| 20260903110049 | 76 | 281 | 9.0 | 17.0 | 0.00 | 0.00 | 0.00 | 50 | 1019.9 |
| 20260903104554 | 74 | 269 | 10.0 | 18.0 | 0.00 | 0.00 | 0.00 | 51 | 1020.1 |
| 20260903103053 | 74 | 148 | 7.0 | 15.0 | 0.00 | 0.00 | 0.00 | 53 | 1020.0 |
| 20260903101557 | 74 | 360 | 8.0 | 14.0 | 0.00 | 0.00 | 0.00 | 53 | 1020.1 |
| 20260903100055 | 73 | 360 | 4.0 | 16.0 | 0.00 | 0.00 | 0.00 | 53 | 1020.2 |
| 20260903094637 | 72 | 360 | 4.0 | 0.0 | 0.00 | 0.00 | 0.00 | 55 | 1020.2 |
| 20260903093054 | 72 | 276 | 5.0 | 13.0 | 0.00 | 0.00 | 0.00 | 54 | 1020.4 |
| 20260903091554 | 71 | 320 | 6.0 | 14.0 | 0.00 | 0.00 | 0.00 | 56 | 1020.3 |
| 20260903090057 | 70 | 360 | 9.0 | 15.0 | 0.00 | 0.00 | 0.00 | 56 | 1020.6 |
| 20260903084551 | 69 | 360 | 3.0 | 14.0 | 0.00 | 0.00 | 0.00 | 57 | 1020.5 |
| 20260903083048 | 69 | 279 | 5.0 | 12.0 | 0.00 | 0.00 | 0.00 | 58 | 1020.4 |
| 20260903081548 | 68 | 360 | 4.0 | 10.0 | 0.00 | 0.00 | 0.00 | 59 | 1020.3 |
| 20260903080100 | 68 | 0 | 0.0 | 0.0 | 0.00 | 0.00 | 0.00 | 60 | 1020.2 |
| 20260903074552 | 65 | 0 | 0.0 | 7.0 | 0.00 | 0.00 | 0.00 | 68 | 1020.0 |
| 20260903073050 | 63 | 172 | 0.0 | 8.0 | 0.00 | 0.00 | 0.00 | 71 | 1020.1 |
| 20260903071554 | 61 | 0 | 0.0 | 6.0 | 0.00 | 0.00 | 0.00 | 76 | 1020.3 |
| 20260903070053 | 59 | 0 | 0.0 | 5.0 | 0.00 | 0.00 | 0.00 | 80 | 1020.5 |
| 20260903064554 | 58 | 0 | 0.0 | 3.0 | 0.00 | 0.00 | 0.00 | 83 | 1020.5 |
| 20260903063059 | 56 | 0 | 0.0 | 3.0 | 0.00 | 0.00 | 0.00 | 83 | 1020.4 |
| 20260903061554 | 55 | 0 | 0.0 | 0.0 | 0.00 | 0.00 | 0.00 | 82 | 1020.3 |
| 20260903060056 | 55 | 0 | 0.0 | 0.0 | 0.00 | 0.00 | 0.00 | 82 | 1020.2 |
| 20260903054549 | 54 | 0 | 0.0 | 0.0 | 0.00 | 0.00 | 0.00 | 81 | 1020.2 |
| 20260903053102 | 54 | 0 | 0.0 | 0.0 | 0.00 | 0.00 | 0.00 | 81 | 1020.0 |
| 20260903051554 | 53 | 0 | 0.0 | 0.0 | 0.00 | 0.00 | 0.00 | 80 | 1020.0 |
| 20260903050049 | 53 | 0 | 0.0 | 0.0 | 0.00 | 0.00 | 0.00 | 79 | 1020.0 |
| 20260903044546 | 53 | 0 | 0.0 | 0.0 | 0.00 | 0.00 | 0.00 | 79 | 1020.0 |
| 20260903043053 | 53 | 0 | 0.0 | 0.0 | 0.00 | 0.00 | 0.00 | 78 | 1019.9 |
| 20260903041607 | 54 | 0 | 0.0 | 0.0 | 0.00 | 0.00 | 0.00 | 77 | 1019.9 |
| 20260903034553 | 54 | 0 | 0.0 | 0.0 | 0.00 | 0.00 | 0.00 | 76 | 1019.8 |
| 20260903033052 | 55 | 0 | 0.0 | 0.0 | 0.00 | 0.00 | 0.00 | 76 | 1019.8 |
| 20260903031551 | 55 | 0 | 0.0 | 0.0 | 0.00 | 0.00 | 0.00 | 76 | 1019.9 |
| 20260903030049 | 56 | 0 | 0.0 | 0.0 | 0.00 | 0.00 | 0.00 | 75 | 1019.9 |
| 20260903024555 | 56 | 0 | 0.0 | 0.0 | 0.00 | 0.00 | 0.00 | 75 | 1019.9 |
| 20260903023055 | 56 | 0 | 0.0 | 0.0 | 0.00 | 0.00 | 0.00 | 75 | 1019.9 |
| 20260903021552 | 57 | 0 | 0.0 | 0.0 | 0.00 | 0.00 | 0.00 | 75 | 1019.9 |
| 20260903020047 | 57 | 0 | 0.0 | 0.0 | 0.00 | 0.00 | 0.00 | 75 | 1019.8 |
| 20260903014556 | 57 | 0 | 0.0 | 0.0 | 0.00 | 0.00 | 0.00 | 75 | 1019.8 |
| 20260903013052 | 57 | 0 | 0.0 | 0.0 | 0.00 | 0.00 | 0.00 | 75 | 1019.9 |
| 20260903011600 | 57 | 0 | 0.0 | 0.0 | 0.00 | 0.00 | 0.00 | 75 | 1019.8 |
| 20260903010056 | 57 | 0 | 0.0 | 0.0 | 0.00 | 0.00 | 0.00 | 75 | 1019.7 |
| 20260903004557 | 57 | 0 | 0.0 | 0.0 | 0.00 | 0.00 | 0.00 | 74 | 1019.8 |
| 20260903003052 | 57 | 0 | 0.0 | 0.0 | 0.00 | 0.00 | 0.00 | 73 | 1019.8 |
| 20260903001601 | 58 | 0 | 0.0 | 0.0 | 0.00 | 0.00 | 0.00 | 73 | 1019.7 |
| 20260903000100 | 58 | 0 | 0.0 | 0.0 | 0.00 | 0.00 | 0.00 | 73 | 1019.7 |
| 20260902234554 | 58 | 0 | 0.0 | 0.0 | 0.00 | 0.00 | 0.00 | 73 | 1019.6 |
| 20260902233053 | 58 | 0 | 0.0 | 0.0 | 0.00 | 0.00 | 0.00 | 72 | 1019.6 |
| 20260902231551 | 58 | 0 | 0.0 | 0.0 | 0.00 | 0.00 | 0.00 | 71 | 1019.8 |
| 20260902230049 | 59 | 0 | 0.0 | 0.0 | 0.00 | 0.00 | 0.00 | 71 | 1019.7 |
| 20260902224558 | 59 | 0 | 0.0 | 0.0 | 0.00 | 0.00 | 0.00 | 70 | 1019.7 |
| 20260902223050 | 59 | 0 | 0.0 | 0.0 | 0.00 | 0.00 | 0.00 | 69 | 1019.7 |
| 20260902221559 | 60 | 0 | 0.0 | 0.0 | 0.00 | 0.00 | 0.00 | 69 | 1019.6 |
| 20260902214550 | 61 | 0 | 0.0 | 0.0 | 0.00 | 0.00 | 0.00 | 68 | 1019.4 |
| 20260902213049 | 61 | 0 | 0.0 | 0.0 | 0.00 | 0.00 | 0.00 | 67 | 1019.5 |
| 20260902211554 | 62 | 0 | 0.0 | 0.0 | 0.00 | 0.00 | 0.00 | 66 | 1019.4 |
| 20260902204552 | 64 | 0 | 0.0 | 0.0 | 0.00 | 0.00 | 0.00 | 63 | 1019.1 |
| 20260902203105 | 65 | 0 | 0.0 | 0.0 | 0.00 | 0.00 | 0.00 | 63 | 1019.0 |
| 20260902201553 | 65 | 0 | 0.0 | 0.0 | 0.00 | 0.00 | 0.00 | 61 | 1019.0 |
| 20260902200107 | 66 | 0 | 0.0 | 0.0 | 0.00 | 0.00 | 0.00 | 59 | 1019.0 |
| 20260902194559 | 66 | 0 | 0.0 | 0.0 | 0.00 | 0.00 | 0.00 | 59 | 1019.0 |
| 20260902193053 | 67 | 0 | 0.0 | 0.0 | 0.00 | 0.00 | 0.00 | 57 | 1019.0 |
| 20260902191559 | 68 | 0 | 0.0 | 0.0 | 0.00 | 0.00 | 0.00 | 56 | 1018.9 |
| 20260902190116 | 68 | 0 | 0.0 | 1.0 | 0.00 | 0.00 | 0.00 | 55 | 1018.8 |
| 20260902184644 | 69 | 0 | 0.0 | 7.0 | 0.00 | 0.00 | 0.00 | 53 | 1018.7 |
| 20260902183054 | 69 | 0 | 0.0 | 0.0 | 0.00 | 0.00 | 0.00 | 52 | 1018.4 |
| 20260902181608 | 70 | 0 | 0.0 | 0.0 | 0.00 | 0.00 | 0.00 | 51 | 1018.2 |
| 20260902180052 | 70 | 0 | 0.0 | 0.0 | 0.00 | 0.00 | 0.00 | 50 | 1018.1 |
| 20260902174558 | 70 | 0 | 0.0 | 0.0 | 0.00 | 0.00 | 0.00 | 49 | 1018.0 |
| 20260902173055 | 71 | 0 | 0.0 | 3.0 | 0.00 | 0.00 | 0.00 | 49 | 1017.8 |
| 20260902171614 | 71 | 252 | 0.0 | 1.0 | 0.00 | 0.00 | 0.00 | 49 | 1017.8 |
| 20260902170051 | 71 | 0 | 0.0 | 2.0 | 0.00 | 0.00 | 0.00 | 49 | 1017.8 |
| 20260902164603 | 72 | 0 | 0.0 | 6.0 | 0.00 | 0.00 | 0.00 | 48 | 1017.8 |
| 20260902163054 | 73 | 0 | 0.0 | 10.0 | 0.00 | 0.00 | 0.00 | 46 | 1017.7 |
| 20260902161552 | 74 | 360 | 1.0 | 11.0 | 0.00 | 0.00 | 0.00 | 46 | 1017.6 |
| 20260902160053 | 74 | 0 | 0.0 | 8.0 | 0.00 | 0.00 | 0.00 | 46 | 1017.5 |
| 20260902154552 | 74 | 360 | 3.0 | 9.0 | 0.00 | 0.00 | 0.00 | 44 | 1017.5 |
| 20260902153104 | 75 | 157 | 0.0 | 9.0 | 0.00 | 0.00 | 0.00 | 46 | 1017.6 |
| 20260902151600 | 75 | 254 | 5.0 | 14.0 | 0.00 | 0.00 | 0.00 | 43 | 1017.7 |
| 20260902150054 | 75 | 360 | 5.0 | 13.0 | 0.00 | 0.00 | 0.00 | 43 | 1017.8 |
| 20260902144558 | 74 | 161 | 0.0 | 9.0 | 0.00 | 0.00 | 0.00 | 46 | 1017.7 |
| 20260902143048 | 75 | 297 | 4.0 | 9.0 | 0.00 | 0.00 | 0.00 | 48 | 1017.8 |
| 20260902141550 | 76 | 360 | 9.0 | 12.0 | 0.00 | 0.00 | 0.00 | 43 | 1017.9 |
| 20260902140056 | 76 | 270 | 0.0 | 6.0 | 0.00 | 0.00 | 0.00 | 46 | 1017.8 |
| 20260902134609 | 76 | 273 | 6.0 | 14.0 | 0.00 | 0.00 | 0.00 | 44 | 1018.0 |
| 20260902133053 | 76 | 360 | 4.0 | 12.0 | 0.00 | 0.00 | 0.00 | 43 | 1018.0 |
| 20260902131552 | 75 | 0 | 0.0 | 8.0 | 0.00 | 0.00 | 0.00 | 45 | 1018.0 |
| 20260902130053 | 75 | 318 | 5.0 | 11.0 | 0.00 | 0.00 | 0.00 | 48 | 1018.0 |
| 20260902124556 | 76 | 0 | 0.0 | 5.0 | 0.00 | 0.00 | 0.00 | 47 | 1018.1 |